< < Back
Terminal Aerodrome Forecast


Current Version              Previous Versions:   1  2  3  4  5  6  7  8  9  

Terminal Aerodrome Forecast

032
FTUS42 KJAX 291121
TAFGNV
TAF
KGNV 291121Z 2912/3012 VRB03KT P6SM SCT250
      TEMPO 2912/2913 4SM BR
     FM291600 09009KT P6SM SCT040 SCT250
     FM300100 08004KT P6SM SCT250=

Latest METAR

042
SAUS70 KWBC 300000 RRL
MTRGNV
METAR KGNV 292353Z 09009G17KT 10SM CLR 27/17 A3008 RMK AO2 SLPNO
T02720172 10317 20272 53001


USA.gov is the U.S. government's official web portal to all federal, state and local government web resources and services.